SCP
0 0 0 0 1 1 1 1 1 0 0 0 0 1 0 0 0 0 0 0 0 0 0 0 0 0 0 0 0 0 0 0 0 0 0 0 0 0 0 0 0 0 0
0 0 0 1 1 1 1 1 1 1 1 1 1 1 1 1 0 0 0 0 0 0 0 0 0 0 0 0 0 0 0 0 0 0 0 0 0 0 0 0 0 0 0
0 1 1 1 0 0 1 1 1 1 1 1 1 1 1 1 1 0 0 0 0 0 0 0 0 0 0 0 0 0 0 0 0 0 0 0 0 0 0 0 0 0 0
0 0 1 0 0 0 0 1 1 1 1 1 1 1 1 1 1 1 1 1 0 0 0 0 0 0 0 0 0 0 0 0 0 0 0 0 0 0 0 0 0 0 0
0 0 0 0 0 0 0 1 1 1 1 1 1 1 1 1 1 1 1 1 0 0 0 0 0 0 0 0 0 0 0 0 0 0 0 0 0 0 0 0 0 0 0
0 0 0 0 0 0 0 1 1 1 1 1 1 1 1 1 1 1 1 1 0 0 0 0 0 0 0 0 0 0 0 0 0 0 0 0 0 0 0 0 0 0 0
0 0 0 0 0 0 0 1 1 1 1 1 1 1 1 1 1 1 1 1 1 0 0 0 0 0 0 0 0 0 0 0 1 1 1 0 0 0 0 0 0 0 0
0 0 0 0 0 0 0 0 1 1 1 1 1 1 1 1 1 1 1 1 1 1 1 0 0 0 0 0 0 1 1 1 1 1 1 1 1 0 0 0 0 0 0
0 0 0 0 0 0 0 0 1 1 1 1 1 1 1 1 1 1 1 1 1 1 1 0 0 0 0 0 1 1 1 1 1 1 1 1 1 1 0 0 0 0 0
0 0 0 0 0 0 1 1 1 1 1 1 1 1 1 1 1 1 1 1 1 1 0 0 0 0 0 0 0 1 1 1 1 1 1 1 1 1 1 0 0 0 0
1 1 1 1 1 1 1 1 1 1 1 1 1 1 1 1 1 1 1 1 1 1 0 0 0 0 0 0 0 0 0 0 1 1 1 1 1 1 1 0 0 0 0
0 1 1 1 1 1 1 1 1 1 1 1 1 1 1 1 1 1 1 1 1 0 0 0 0 0 0 0 0 0 0 0 0 0 0 0 0 0 1 0 0 0 0
0 0 0 1 1 1 1 1 1 1 1 1 1 1 1 1 1 1 1 1 1 0 0 0 0 0 0 0 0 0 0 0 0 0 0 0 0 0 0 0 0 0 0
0 0 0 1 1 1 1 1 1 1 1 1 1 1 1 1 1 1 0 0 0 0 0 0 0 0 0 0 0 0 0 0 0 0 0 0 0 0 0 0 0 0 0
0 0 0 0 1 1 1 1 1 1 1 1 1 1 1 1 1 0 0 0 0 0 0 0 0 0 0 0 0 0 0 0 0 0 0 0 0 0 0 0 0 0 0
0 0 0 0 0 0 0 0 1 1 1 1 1 1 1 1 0 0 0 0 0 0 0 0 0 0 0 0 0 0 0 0 0 0 0 0 0 0 0 0 0 0 0
0 0 0 0 0 0 0 1 1 1 1 1 1 1 1 1 1 0 0 0 0 0 0 0 0 0 0 0 0 0 0 0 0 0 0 0 0 0 0 0 0 0 0
0 0 0 0 0 0 1 1 1 1 1 1 1 1 1 1 1 1 0 0 0 0 0 0 0 0 0 0 0 0 0 0 0 0 0 0 0 0 0 0 0 0 0
0 0 0 1 1 1 1 1 1 1 1 1 1 1 1 1 1 1 1 0 0 0 0 0 0 0 0 0 0 0 0 0 0 0 0 0 0 0 0 0 0 0 0
0 0 0 1 1 1 1 1 1 1 1 1 1 1 1 1 1 1 1 1 0 0 0 0 0 0 0 0 0 0 0 0 0 0 0 0 0 0 0 0 0 0 0
0 0 1 1 1 1 1 1 1 1 1 1 1 1 1 1 1 1 1 0 0 0 0 0 0 0 0 0 0 0 0 0 0 0 0 0 0 0 0 0 0 0 0
0 0 1 1 1 1 1 1 1 1 1 1 1 1 1 1 1 1 1 0 0 0 0 0 0 0 0 0 0 0 0 0 0 0 0 0 0 0 0 0 0 0 0
0 0 0 1 1 1 1 1 1 1 1 1 1 1 1 1 1 1 1 1 0 0 0 0 0 0 0 0 0 0 0 0 0 0 0 0 0 0 0 0 0 0 0
0 0 0 0 1 1 0 0 0 1 1 1 1 1 1 1 1 1 1 0 0 0 0 0 0 0 0 0 0 0 0 0 0 0 0 0 0 0 0 0 0 0 0
0 0 0 0 0 1 0 0 0 0 1 1 1 1 1 1 1 0 0 0 0 0 0 0 0 0 0 0 0 0 0 0 0 0 0 -0 -0 -0 0 0 0 0 0
0 0 0 0 0 0 0 0 0 0 1 1 1 1 1 1 1 0 0 0 0 0 0 0 0 0 0 0 0 0 0 0 0 0 -0 -0 -0 -0 0 0 0 0 0
Wind_Speed
7 7 8 8 8 8 8 8 7 7 5 4 4 4 4 3 2 2 2 1 0 0 1 1 1 1 1 1 2 2 2 1 1 2 1 2 2 2 1 1 1 2 2
6 7 7 8 8 8 8 8 8 7 6 4 3 3 2 2 2 1 2 1 1 1 1 0 1 1 1 1 1 2 1 1 1 2 2 2 3 2 1 2 2 2 2
6 7 7 8 8 9 9 7 7 7 6 6 5 4 3 2 3 3 2 1 1 0 1 1 1 1 1 1 2 2 3 2 1 1 2 2 0 2 3 2 2 1 1
5 7 8 8 8 8 8 7 7 7 7 7 6 6 5 4 3 2 2 2 2 1 1 1 1 2 1 1 2 2 2 3 2 1 1 2 3 2 1 3 3 2 2
4 6 8 8 8 8 8 8 7 7 7 7 6 6 5 4 3 2 2 2 2 2 1 1 1 2 2 2 2 2 3 2 2 1 1 1 1 3 2 1 1 2 2
3 4 6 7 7 7 7 7 7 7 7 7 7 7 6 4 4 3 3 3 2 2 2 2 2 2 1 1 2 2 3 2 2 2 2 2 2 2 2 2 2 1 1
2 4 5 6 6 6 7 7 8 7 7 8 7 7 7 6 5 4 4 4 3 2 2 2 2 1 1 1 2 2 2 3 3 3 2 2 2 1 2 2 2 1 1
1 2 3 5 6 6 6 7 7 7 7 7 7 6 6 5 4 4 4 4 2 2 2 2 2 2 2 2 2 2 2 2 3 3 2 2 2 1 2 2 2 2 2
0 1 2 4 5 6 6 7 7 7 7 7 6 6 6 5 4 4 4 3 2 3 3 3 2 2 2 2 3 1 2 1 2 2 3 3 2 2 2 2 2 3 2
0 0 2 3 4 5 6 6 6 7 7 7 6 5 5 5 4 4 3 2 3 2 3 3 3 3 3 2 2 2 1 2 2 1 1 2 2 1 2 2 2 2 3
1 1 1 2 4 4 5 6 6 6 5 5 5 4 4 4 4 4 4 3 3 3 3 3 3 2 3 2 2 2 2 2 2 2 1 2 2 2 2 2 2 2 2
1 1 0 1 3 3 4 5 5 5 5 5 5 5 4 4 4 4 3 3 3 3 3 3 3 3 3 2 3 3 2 2 2 2 2 2 1 2 2 2 2 1 2
1 1 0 0 1 2 3 4 5 5 5 5 5 4 4 4 4 3 3 3 3 3 3 3 3 2 2 3 3 3 3 3 2 2 2 2 2 2 1 2 2 2 2
1 1 1 1 0 1 2 3 4 4 5 5 5 5 4 4 4 4 4 3 3 3 3 3 3 3 3 3 3 3 3 2 2 2 3 3 3 3 3 3 3 3 3
1 2 1 1 1 0 1 2 2 3 3 4 4 4 4 3 3 3 3 3 4 3 3 3 4 3 3 2 1 2 2 2 2 2 3 2 1 1 2 3 2 3 3
2 2 2 1 1 1 1 2 2 3 3 3 3 3 4 4 4 4 4 3 4 3 3 4 4 4 2 3 2 2 2 3 3 3 3 3 5 4 4 2 3 4 4
3 3 2 1 1 1 1 2 2 2 3 3 3 3 4 4 4 4 4 4 4 4 4 4 4 3 2 2 1 3 3 3 3 3 4 4 2 5 4 5 6 5 5
4 3 3 2 1 1 1 2 3 3 3 4 4 4 4 4 4 4 4 4 3 4 3 4 4 3 3 4 3 4 5 4 4 4 4 4 3 3 4 5 4 4 3
4 4 3 3 2 1 1 2 3 3 4 4 4 4 4 5 4 4 4 3 3 3 3 4 4 4 3 4 4 5 4 3 4 4 4 4 4 1 3 5 5 4 3
5 4 3 2 2 1 1 2 3 3 3 3 3 3 4 4 4 4 4 3 3 3 4 3 3 3 2 3 4 5 4 3 3 3 3 2 3 1 3 5 4 5 4
5 4 3 2 2 2 2 2 3 3 3 3 3 3 3 4 4 4 4 3 4 3 3 3 3 3 2 4 3 4 4 3 4 3 3 1 3 2 3 5 4 3 4
5 4 3 3 2 2 3 3 3 3 3 3 3 3 3 3 3 4 3 3 3 4 4 3 3 3 3 2 3 4 4 4 4 3 2 2 4 1 3 4 2 3 6
5 4 3 3 2 3 3 3 2 2 3 3 3 3 4 3 3 4 4 3 3 3 3 3 3 3 2 3 5 6 5 4 4 2 2 1 3 3 5 5 5 6 6
5 4 3 3 3 2 2 1 2 2 3 3 3 3 3 3 3 3 3 2 2 2 2 3 3 2 2 2 2 3 3 4 4 3 2 5 6 5 3 3 5 5 4
5 4 3 3 3 2 1 1 2 3 3 3 3 3 3 3 3 2 1 1 1 1 2 2 2 2 2 0 2 1 2 2 1 2 3 3 3 3 3 3 2 3 3
4 4 3 3 2 2 1 1 1 2 3 3 3 3 3 3 3 3 2 2 1 2 2 3 3 1 1 1 1 0 0 1 2 3 3 3 2 3 2 2 2 3 3
Wind_Direction
180 176 179 179 176 177 178 180 185 176 183 184 188 183 177 176 165 150 119 123 100 129 272 274 142 216 172 178 182 190 178 204 223 229 184 165 167 171 176 203 204 176 190
175 175 179 182 182 180 181 181 184 181 189 176 181 181 173 180 161 152 128 147 168 264 221 257 203 178 167 177 195 205 230 229 234 265 256 197 169 172 173 188 200 207 196
186 180 183 186 186 185 186 187 185 183 190 176 174 169 162 185 175 170 161 153 154 250 335 294 267 229 223 193 202 203 217 228 224 276 293 290 256 144 150 183 183 183 201
193 185 184 186 188 186 182 179 180 185 186 188 191 187 186 193 186 178 153 161 172 184 219 251 240 242 230 210 223 202 222 242 236 205 266 309 338 291 160 168 160 172 203
198 189 188 187 187 184 179 175 178 186 189 196 194 199 204 201 190 180 155 187 170 193 215 228 243 235 236 230 246 231 242 241 250 246 233 234 236 266 266 200 168 173 189
190 191 189 182 180 177 179 175 178 187 191 196 197 202 205 205 195 188 182 201 185 188 202 223 229 235 234 231 238 236 227 255 266 261 246 245 248 244 248 242 234 205 165
184 186 184 179 177 176 180 178 181 188 192 197 200 204 207 202 201 207 205 213 200 187 187 217 222 225 215 233 239 239 257 243 243 242 241 243 256 262 257 260 262 253 179
175 174 180 184 184 182 182 183 183 184 188 195 199 204 208 211 209 213 220 218 216 198 187 205 211 222 230 222 222 237 235 241 247 241 237 232 231 235 242 255 263 254 217
151 173 187 191 192 186 184 187 186 184 189 191 189 192 201 214 208 204 217 215 208 201 195 203 209 217 225 232 229 233 256 244 241 232 221 232 209 215 229 243 264 272 267
317 191 197 197 194 189 185 185 186 189 192 191 192 189 192 201 203 208 210 211 208 216 212 217 215 220 219 223 240 228 221 237 242 263 267 256 231 219 222 241 259 270 277
322 280 218 195 187 186 184 182 185 188 192 196 193 192 186 191 197 200 198 196 195 195 205 214 209 214 216 212 223 243 232 235 235 238 219 240 274 245 233 232 238 248 258
346 332 229 183 176 180 183 183 185 187 186 189 187 184 180 180 183 184 185 184 190 202 199 206 207 216 214 209 214 225 229 231 232 231 228 228 216 230 254 252 252 252 261
344 2 50 138 168 176 180 181 185 189 183 180 184 179 182 182 184 179 178 184 190 199 196 200 216 223 224 218 215 217 222 227 235 232 230 240 233 239 249 253 250 245 236
348 12 13 28 106 165 176 183 189 189 184 181 183 181 183 185 192 189 184 188 192 194 193 187 206 221 224 225 223 224 219 222 229 235 236 236 231 225 234 235 242 248 246
12 15 2 3 351 196 186 188 195 196 191 188 189 181 174 180 192 191 190 194 195 196 197 198 207 215 221 227 217 223 222 228 234 235 237 232 241 326 287 283 266 256 257
355 6 359 358 320 253 220 200 200 197 191 196 195 182 180 184 195 198 190 194 197 196 200 209 216 221 223 81 36 282 241 234 235 233 233 219 204 201 216 257 281 279 265
346 336 333 341 308 263 221 207 190 183 185 190 189 188 186 190 197 199 187 190 200 201 211 219 223 223 182 142 189 274 257 243 244 244 244 246 216 226 228 212 214 229 240
338 330 322 312 298 260 220 195 180 183 189 193 194 193 191 190 192 200 195 193 201 204 212 220 219 220 195 170 196 242 241 243 237 240 246 254 248 249 261 253 242 239 226
339 327 307 293 285 272 232 193 186 187 196 201 201 199 194 192 190 196 200 199 198 200 215 219 211 213 185 176 197 231 235 231 239 245 253 252 239 228 282 255 248 249 243
335 323 307 293 280 269 233 207 200 200 205 204 203 207 199 197 195 197 206 204 202 204 213 210 210 212 191 172 195 237 243 235 235 229 232 238 247 221 258 251 248 250 256
325 319 311 296 290 271 233 216 210 210 208 211 207 201 197 197 195 193 196 202 207 208 218 212 214 214 191 175 195 242 258 251 248 243 235 174 144 208 248 261 253 256 271
322 317 307 298 292 266 242 225 219 212 205 201 198 195 195 201 190 185 193 202 206 201 208 213 220 209 194 189 195 216 251 282 260 260 259 125 128 193 254 259 259 259 261
316 312 303 295 285 262 244 229 216 197 192 191 198 200 195 198 191 191 190 192 203 220 216 218 222 215 202 177 183 203 219 236 259 288 27 118 194 218 230 226 237 242 246
311 308 300 292 294 289 269 227 207 192 184 191 195 190 188 187 182 193 193 202 211 221 230 242 241 225 216 223 208 201 197 199 221 239 187 188 207 225 240 215 218 235 256
317 308 302 298 295 292 271 231 209 187 180 187 198 196 191 180 176 180 173 220 233 291 263 255 256 253 236 41 34 271 246 250 235 262 242 228 208 212 216 218 230 246 243
313 312 311 306 300 296 270 231 209 189 185 191 197 199 185 178 182 171 156 64 77 66 49 4 327 335 55 112 115 63 325 279 232 244 239 235 239 246 248 244 241 242 253